SCP
3 3 1 0 0 -0 0 0 0 0 0 0 0 0 0 0 0 0 0 0 0 0 0 0 0 0 0 -0 0 0 0 0 0 0 0 0 0 0
3 1 0 0 -0 -0 1 0 0 0 0 0 0 0 0 0 0 0 0 0 0 0 0 0 0 0 0 0 -0 0 0 0 0 0 0 0 0 0
2 1 0 0 0 0 1 0 0 0 0 0 0 0 0 0 0 0 0 0 0 0 0 0 0 0 0 -0 0 0 -0 0 0 0 0 0 0 0
2 1 1 2 1 1 1 0 0 0 0 0 0 0 0 0 0 0 0 0 0 0 0 0 0 0 0 0 0 0 0 0 0 0 0 0 0 0
1 2 2 3 2 1 1 0 0 0 0 0 0 0 0 0 0 0 0 0 0 0 0 0 0 0 0 0 0 0 0 0 0 0 0 0 0 0
2 2 2 2 2 1 1 1 0 0 0 0 0 0 0 0 0 0 0 0 0 0 0 0 0 0 0 0 0 0 0 0 0 0 0 0 0 0
3 3 3 2 1 1 1 0 0 0 0 0 0 0 0 0 0 0 0 0 0 0 0 0 0 0 0 0 0 0 0 0 0 0 0 0 0 0
3 3 3 1 1 1 1 0 0 0 0 0 0 0 0 0 0 0 0 0 0 0 0 0 0 0 0 0 0 0 0 0 0 0 0 0 0 0
2 3 2 1 0 0 0 0 0 0 0 0 0 0 0 0 0 0 0 0 0 0 0 0 0 0 0 0 0 0 0 0 0 0 0 0 0 0
2 2 1 0 0 0 0 0 0 0 0 0 0 0 0 0 0 0 0 0 0 0 0 0 0 0 0 0 0 0 0 0 0 0 0 0 -0 0
2 1 0 0 0 0 0 0 0 0 0 0 0 0 0 0 0 0 0 0 0 0 0 0 0 0 0 0 0 0 0 0 0 0 0 0 0 0
1 1 0 0 0 0 0 0 0 0 0 0 0 0 0 0 0 0 0 0 0 0 0 0 0 0 0 0 0 0 0 0 0 0 0 0 0 0
1 0 0 0 0 0 0 0 0 0 0 0 0 0 0 0 0 0 0 0 0 0 0 0 0 0 0 0 0 0 0 0 0 0 0 0 0 0
0 0 0 0 0 0 0 0 0 0 0 0 0 0 0 0 0 -0 0 0 -0 0 0 0 0 0 0 0 0 0 0 0 0 0 0 0 0 0
0 0 0 0 0 0 0 0 0 0 0 0 0 0 -0 0 0 0 0 0 0 -0 0 0 0 0 0 0 0 0 0 0 0 0 0 0 0 0
0 0 0 0 0 0 0 0 0 0 0 0 0 0 0 0 0 0 0 0 0 0 0 -0 0 0 0 0 0 0 0 0 0 0 0 0 0 0
0 0 0 0 0 0 0 0 0 0 0 0 0 0 0 0 0 0 0 0 0 0 0 0 0 0 0 0 0 0 0 0 0 0 0 0 0 0
0 0 0 0 0 0 0 0 0 0 0 0 0 0 0 0 0 0 0 0 0 0 0 0 0 0 0 0 0 0 0 0 0 0 0 0 0 0
0 0 0 0 0 0 0 0 0 0 0 0 0 0 0 0 0 0 0 0 0 0 0 0 0 0 0 0 0 0 0 0 0 0 0 0 0 0
0 0 0 0 0 0 0 0 0 0 0 0 0 0 0 0 0 0 0 0 0 0 0 0 0 0 0 0 0 0 0 0 0 0 0 0 0 0
0 0 0 0 0 0 0 0 0 0 0 0 0 0 0 0 0 0 0 0 0 0 0 0 -0 0 0 0 0 0 0 0 0 0 0 0 0 0
0 0 0 0 0 0 0 0 0 0 0 0 0 0 0 0 0 0 0 0 0 -0 -0 0 0 0 0 0 0 0 0 0 0 0 0 0 0 0
0 0 0 0 0 0 0 0 0 0 0 0 0 0 0 0 0 0 0 0 0 0 0 0 0 0 0 0 0 0 0 0 0 0 0 0 0 0
Wind_Speed_500mb
57 48 50 69 87 74 75 63 53 57 29 31 26 37 36 32 30 31 33 31 22 17 17 19 26 33 37 38 38 43 40 38 34 34 35 37 41 40
57 57 63 70 109 87 74 64 60 51 35 18 27 32 38 33 32 33 32 27 24 20 16 17 21 28 36 36 34 41 39 35 32 34 35 36 38 33
72 72 76 77 76 70 72 67 61 49 42 29 28 28 37 33 32 35 29 27 22 22 22 22 27 26 29 39 40 41 39 37 36 32 33 30 32 25
71 65 71 70 62 70 71 72 57 52 39 36 35 39 38 31 30 33 30 26 21 20 19 20 24 31 26 31 37 38 38 38 36 33 34 29 33 30
75 71 72 65 66 64 66 66 53 50 42 42 36 41 35 29 27 30 26 26 23 21 21 20 21 30 31 31 35 36 38 38 36 36 36 33 37 35
74 70 68 71 65 62 67 57 50 51 44 40 37 38 33 29 27 26 24 23 18 19 19 24 25 28 36 37 37 37 37 37 37 38 39 38 36 32
85 77 79 68 65 63 57 51 61 50 45 44 46 42 41 37 32 20 22 19 17 23 21 19 25 29 32 37 40 38 37 37 37 41 42 41 44 38
81 79 79 66 63 61 51 47 58 62 50 49 49 47 43 37 30 23 21 19 23 24 27 20 21 28 30 34 37 39 38 37 38 42 42 45 43 36
85 79 78 70 65 57 49 53 50 43 40 42 43 41 34 37 31 29 30 31 29 26 22 27 26 27 32 36 38 39 40 37 38 39 37 35 35 35
84 78 77 72 68 58 53 54 47 44 41 41 38 33 31 28 28 29 31 33 33 29 23 28 34 32 31 28 31 35 36 34 31 32 31 31 35 35
83 76 66 67 62 53 56 54 48 46 43 42 35 32 36 36 33 31 32 33 37 36 27 28 31 32 34 30 25 26 29 33 31 28 32 33 34 33
83 72 74 75 61 58 48 50 45 43 43 35 26 28 33 34 34 29 25 28 32 29 30 30 28 26 25 29 28 31 34 38 34 30 33 30 33 38
80 70 70 66 52 40 41 42 32 28 30 23 22 32 33 27 25 25 23 23 26 27 15 25 27 26 18 10 26 30 32 36 42 40 41 39 39 43
81 66 71 59 44 45 48 42 37 34 27 23 24 20 14 13 16 17 16 18 23 24 18 13 24 24 23 26 25 25 33 34 36 39 43 40 40 42
75 74 59 48 49 42 43 45 37 29 23 21 19 9 13 15 16 14 14 15 15 20 26 21 22 24 21 19 22 19 19 36 42 43 47 48 49 45
66 59 47 53 49 43 38 40 37 25 21 18 16 16 10 13 13 14 13 15 15 15 17 20 22 25 25 22 20 26 22 19 17 26 36 45 48 48
68 60 59 54 54 47 40 34 28 25 30 26 17 18 14 9 11 16 18 13 12 13 11 12 11 16 25 27 26 31 34 35 32 27 28 28 30 30
69 69 61 55 51 46 39 31 28 33 31 29 23 19 16 9 5 17 23 22 19 15 10 12 13 13 19 22 25 29 33 33 32 33 36 39 36 32
72 69 60 52 42 35 29 28 31 33 32 30 26 22 17 12 8 11 24 27 23 17 18 17 16 15 17 20 11 17 16 18 20 28 34 38 41 33
58 59 52 40 33 33 36 32 32 29 29 22 14 18 20 15 13 13 16 21 21 23 17 14 19 21 18 19 18 17 17 17 22 23 30 37 43 39
50 44 38 35 37 41 34 33 33 29 23 16 14 13 9 9 15 14 12 15 18 22 18 13 10 6 7 13 15 12 12 14 21 23 23 25 28 30
38 35 38 37 46 40 36 35 34 30 21 17 13 13 8 3 9 6 5 2 6 12 10 10 7 4 8 8 8 5 6 11 14 15 18 26 26 27
31 28 36 43 43 40 37 36 28 21 14 14 16 16 12 6 6 10 9 5 5 8 9 9 9 11 7 7 3 7 13 14 12 12 15 15 20 34
Wind_Direction_500mb
248 242 252 253 266 269 256 261 257 260 251 233 233 221 230 244 261 275 280 290 294 289 274 250 233 225 223 229 228 218 220 223 226 231 233 238 236 249
252 257 256 265 250 258 255 250 250 259 249 236 233 231 232 246 262 274 279 288 279 274 269 246 230 227 227 226 222 216 219 222 225 232 235 243 235 246
258 258 257 262 246 253 249 249 248 237 235 241 249 238 241 252 258 277 275 277 272 263 262 249 238 232 232 224 221 219 220 224 231 236 236 242 229 238
254 263 269 262 242 249 244 244 247 232 234 235 244 235 232 242 261 276 270 277 262 265 253 248 240 223 221 214 217 217 221 225 233 235 233 231 218 220
260 266 265 252 248 249 230 238 238 232 230 236 243 236 237 253 263 270 258 264 267 254 242 244 236 222 219 218 217 221 221 223 233 233 229 224 218 226
264 266 255 251 257 236 231 236 228 229 229 231 240 242 249 254 266 274 263 270 256 258 243 238 234 225 220 221 220 221 223 224 232 232 232 225 226 235
261 263 261 251 251 236 231 232 232 224 224 237 240 242 250 253 262 272 270 253 248 247 256 244 239 228 222 221 220 224 227 231 235 233 230 230 226 244
256 256 252 250 235 232 238 232 234 234 237 240 239 246 251 256 250 256 261 256 245 253 248 240 244 227 223 224 225 229 234 238 241 237 231 233 222 245
247 249 245 235 225 228 227 231 229 227 236 245 247 249 250 253 248 253 260 260 252 245 237 221 237 228 226 226 229 232 235 239 232 235 225 222 237 232
244 246 240 230 223 223 221 223 220 227 233 238 240 244 249 246 252 256 263 261 247 232 225 229 224 227 230 237 225 230 234 231 223 221 220 228 232 229
242 237 227 229 226 221 219 222 225 228 232 237 241 248 249 251 251 259 245 239 239 229 226 230 235 231 231 237 233 222 216 215 213 238 233 230 234 233
234 228 219 218 222 210 215 222 222 228 231 232 240 248 249 250 256 250 241 235 237 232 232 228 237 228 222 227 228 225 218 219 228 222 222 229 234 237
227 215 213 213 205 196 204 201 203 209 213 230 247 262 248 242 237 234 227 219 225 227 253 234 234 227 215 238 229 232 229 230 230 225 228 234 238 243
216 209 208 196 189 192 198 200 203 209 225 243 261 243 216 180 178 188 203 231 231 222 237 257 226 221 236 244 249 240 237 229 228 230 235 248 251 254
208 203 198 182 183 187 196 206 206 210 229 255 215 189 170 174 176 194 209 212 219 221 232 246 237 235 246 260 259 254 254 242 239 245 245 245 252 262
201 196 181 183 188 192 196 201 209 216 231 187 167 155 164 186 193 199 202 229 243 236 237 222 232 235 242 248 249 255 260 252 251 255 259 258 266 266
187 173 176 182 187 194 196 196 197 206 189 197 187 177 187 182 216 219 204 200 224 237 243 252 252 248 249 253 258 259 265 265 272 273 264 266 269 274
170 171 174 177 184 189 189 189 190 187 191 189 193 197 197 205 225 202 196 200 206 215 229 236 240 259 251 255 263 266 264 267 271 269 266 268 274 292
171 174 177 179 178 176 174 177 184 189 189 190 198 210 217 214 225 207 211 221 219 225 226 237 245 247 252 256 297 297 271 266 268 268 269 269 276 284
174 174 177 176 174 167 163 166 178 181 187 181 176 197 211 215 229 240 234 221 223 230 247 226 237 249 256 253 267 295 287 275 269 276 276 275 272 275
170 173 174 173 160 154 166 186 185 184 180 177 173 175 186 227 242 237 232 229 225 230 234 235 236 287 266 246 268 273 283 284 286 293 295 289 282 275
150 155 161 160 155 168 176 173 177 180 183 184 175 170 179 300 186 173 177 118 177 193 200 196 191 279 305 269 276 290 306 299 288 293 312 296 276 284
141 145 159 162 164 174 179 174 173 169 171 174 164 167 179 135 142 164 160 160 178 184 203 239 274 271 261 298 278 312 323 328 311 294 292 306 295 274
Wind_Speed_850mb
57 48 50 69 87 74 75 63 53 57 29 31 26 37 36 32 30 31 33 31 22 17 17 19 26 33 37 38 38 43 40 38 34 34 35 37 41 40
57 57 63 70 109 87 74 64 60 51 35 18 27 32 38 33 32 33 32 27 24 20 16 17 21 28 36 36 34 41 39 35 32 34 35 36 38 33
72 72 76 77 76 70 72 67 61 49 42 29 28 28 37 33 32 35 29 27 22 22 22 22 27 26 29 39 40 41 39 37 36 32 33 30 32 25
71 65 71 70 62 70 71 72 57 52 39 36 35 39 38 31 30 33 30 26 21 20 19 20 24 31 26 31 37 38 38 38 36 33 34 29 33 30
75 71 72 65 66 64 66 66 53 50 42 42 36 41 35 29 27 30 26 26 23 21 21 20 21 30 31 31 35 36 38 38 36 36 36 33 37 35
74 70 68 71 65 62 67 57 50 51 44 40 37 38 33 29 27 26 24 23 18 19 19 24 25 28 36 37 37 37 37 37 37 38 39 38 36 32
85 77 79 68 65 63 57 51 61 50 45 44 46 42 41 37 32 20 22 19 17 23 21 19 25 29 32 37 40 38 37 37 37 41 42 41 44 38
81 79 79 66 63 61 51 47 58 62 50 49 49 47 43 37 30 23 21 19 23 24 27 20 21 28 30 34 37 39 38 37 38 42 42 45 43 36
85 79 78 70 65 57 49 53 50 43 40 42 43 41 34 37 31 29 30 31 29 26 22 27 26 27 32 36 38 39 40 37 38 39 37 35 35 35
84 78 77 72 68 58 53 54 47 44 41 41 38 33 31 28 28 29 31 33 33 29 23 28 34 32 31 28 31 35 36 34 31 32 31 31 35 35
83 76 66 67 62 53 56 54 48 46 43 42 35 32 36 36 33 31 32 33 37 36 27 28 31 32 34 30 25 26 29 33 31 28 32 33 34 33
83 72 74 75 61 58 48 50 45 43 43 35 26 28 33 34 34 29 25 28 32 29 30 30 28 26 25 29 28 31 34 38 34 30 33 30 33 38
80 70 70 66 52 40 41 42 32 28 30 23 22 32 33 27 25 25 23 23 26 27 15 25 27 26 18 10 26 30 32 36 42 40 41 39 39 43
81 66 71 59 44 45 48 42 37 34 27 23 24 20 14 13 16 17 16 18 23 24 18 13 24 24 23 26 25 25 33 34 36 39 43 40 40 42
75 74 59 48 49 42 43 45 37 29 23 21 19 9 13 15 16 14 14 15 15 20 26 21 22 24 21 19 22 19 19 36 42 43 47 48 49 45
66 59 47 53 49 43 38 40 37 25 21 18 16 16 10 13 13 14 13 15 15 15 17 20 22 25 25 22 20 26 22 19 17 26 36 45 48 48
68 60 59 54 54 47 40 34 28 25 30 26 17 18 14 9 11 16 18 13 12 13 11 12 11 16 25 27 26 31 34 35 32 27 28 28 30 30
69 69 61 55 51 46 39 31 28 33 31 29 23 19 16 9 5 17 23 22 19 15 10 12 13 13 19 22 25 29 33 33 32 33 36 39 36 32
72 69 60 52 42 35 29 28 31 33 32 30 26 22 17 12 8 11 24 27 23 17 18 17 16 15 17 20 11 17 16 18 20 28 34 38 41 33
58 59 52 40 33 33 36 32 32 29 29 22 14 18 20 15 13 13 16 21 21 23 17 14 19 21 18 19 18 17 17 17 22 23 30 37 43 39
50 44 38 35 37 41 34 33 33 29 23 16 14 13 9 9 15 14 12 15 18 22 18 13 10 6 7 13 15 12 12 14 21 23 23 25 28 30
38 35 38 37 46 40 36 35 34 30 21 17 13 13 8 3 9 6 5 2 6 12 10 10 7 4 8 8 8 5 6 11 14 15 18 26 26 27
31 28 36 43 43 40 37 36 28 21 14 14 16 16 12 6 6 10 9 5 5 8 9 9 9 11 7 7 3 7 13 14 12 12 15 15 20 34
Wind_Direction_850mb
248 242 252 253 266 269 256 261 257 260 251 233 233 221 230 244 261 275 280 290 294 289 274 250 233 225 223 229 228 218 220 223 226 231 233 238 236 249
252 257 256 265 250 258 255 250 250 259 249 236 233 231 232 246 262 274 279 288 279 274 269 246 230 227 227 226 222 216 219 222 225 232 235 243 235 246
258 258 257 262 246 253 249 249 248 237 235 241 249 238 241 252 258 277 275 277 272 263 262 249 238 232 232 224 221 219 220 224 231 236 236 242 229 238
254 263 269 262 242 249 244 244 247 232 234 235 244 235 232 242 261 276 270 277 262 265 253 248 240 223 221 214 217 217 221 225 233 235 233 231 218 220
260 266 265 252 248 249 230 238 238 232 230 236 243 236 237 253 263 270 258 264 267 254 242 244 236 222 219 218 217 221 221 223 233 233 229 224 218 226
264 266 255 251 257 236 231 236 228 229 229 231 240 242 249 254 266 274 263 270 256 258 243 238 234 225 220 221 220 221 223 224 232 232 232 225 226 235
261 263 261 251 251 236 231 232 232 224 224 237 240 242 250 253 262 272 270 253 248 247 256 244 239 228 222 221 220 224 227 231 235 233 230 230 226 244
256 256 252 250 235 232 238 232 234 234 237 240 239 246 251 256 250 256 261 256 245 253 248 240 244 227 223 224 225 229 234 238 241 237 231 233 222 245
247 249 245 235 225 228 227 231 229 227 236 245 247 249 250 253 248 253 260 260 252 245 237 221 237 228 226 226 229 232 235 239 232 235 225 222 237 232
244 246 240 230 223 223 221 223 220 227 233 238 240 244 249 246 252 256 263 261 247 232 225 229 224 227 230 237 225 230 234 231 223 221 220 228 232 229
242 237 227 229 226 221 219 222 225 228 232 237 241 248 249 251 251 259 245 239 239 229 226 230 235 231 231 237 233 222 216 215 213 238 233 230 234 233
234 228 219 218 222 210 215 222 222 228 231 232 240 248 249 250 256 250 241 235 237 232 232 228 237 228 222 227 228 225 218 219 228 222 222 229 234 237
227 215 213 213 205 196 204 201 203 209 213 230 247 262 248 242 237 234 227 219 225 227 253 234 234 227 215 238 229 232 229 230 230 225 228 234 238 243
216 209 208 196 189 192 198 200 203 209 225 243 261 243 216 180 178 188 203 231 231 222 237 257 226 221 236 244 249 240 237 229 228 230 235 248 251 254
208 203 198 182 183 187 196 206 206 210 229 255 215 189 170 174 176 194 209 212 219 221 232 246 237 235 246 260 259 254 254 242 239 245 245 245 252 262
201 196 181 183 188 192 196 201 209 216 231 187 167 155 164 186 193 199 202 229 243 236 237 222 232 235 242 248 249 255 260 252 251 255 259 258 266 266
187 173 176 182 187 194 196 196 197 206 189 197 187 177 187 182 216 219 204 200 224 237 243 252 252 248 249 253 258 259 265 265 272 273 264 266 269 274
170 171 174 177 184 189 189 189 190 187 191 189 193 197 197 205 225 202 196 200 206 215 229 236 240 259 251 255 263 266 264 267 271 269 266 268 274 292
171 174 177 179 178 176 174 177 184 189 189 190 198 210 217 214 225 207 211 221 219 225 226 237 245 247 252 256 297 297 271 266 268 268 269 269 276 284
174 174 177 176 174 167 163 166 178 181 187 181 176 197 211 215 229 240 234 221 223 230 247 226 237 249 256 253 267 295 287 275 269 276 276 275 272 275
170 173 174 173 160 154 166 186 185 184 180 177 173 175 186 227 242 237 232 229 225 230 234 235 236 287 266 246 268 273 283 284 286 293 295 289 282 275
150 155 161 160 155 168 176 173 177 180 183 184 175 170 179 300 186 173 177 118 177 193 200 196 191 279 305 269 276 290 306 299 288 293 312 296 276 284
141 145 159 162 164 174 179 174 173 169 171 174 164 167 179 135 142 164 160 160 178 184 203 239 274 271 261 298 278 312 323 328 311 294 292 306 295 274